Temp
72 72 70 67 64 62 62 63 66 72 70 70 70 70 69 69 69 68 68 70 67 68 69 69 68 70 71 73 73 73 69 67 64 67 70 71 64 63 67 69 69 68 71
72 73 71 68 68 63 63 65 69 72 71 72 72 70 70 70 68 68 68 70 69 68 68 69 69 72 69 69 71 68 67 67 63 60 65 68 67 67 67 65 67 69 63
73 72 72 69 64 65 64 64 67 69 72 73 72 69 68 68 68 68 68 69 68 69 69 69 69 69 68 69 68 67 64 70 68 63 65 70 68 68 65 65 62 62 63
78 72 70 70 68 67 66 64 64 66 67 71 69 69 71 65 65 67 64 61 65 69 69 69 70 69 68 68 66 64 66 66 67 67 66 66 67 66 66 62 60 61 59
77 75 71 71 71 68 67 66 64 63 64 64 63 64 65 65 65 62 59 57 62 65 67 70 70 68 60 61 65 67 65 66 66 65 64 65 64 63 60 60 58 59 62
72 72 73 72 72 69 68 67 63 62 65 63 62 62 62 64 52 52 54 55 59 62 65 69 70 63 61 57 57 58 57 61 61 62 63 60 59 61 62 59 55 55 54
75 72 70 69 67 67 66 59 67 61 61 61 64 64 67 64 50 50 51 56 59 59 63 67 68 70 63 64 56 55 55 55 54 59 58 59 58 58 59 56 54 53 55
76 75 74 70 69 67 65 64 63 57 59 60 61 65 62 62 49 49 50 58 56 57 58 63 65 65 61 59 61 61 65 65 60 64 62 61 61 60 59 59 57 56 56
75 75 73 71 69 67 67 67 65 59 57 59 59 59 58 57 48 48 50 56 58 59 63 66 68 62 54 50 60 64 64 64 55 54 51 49 48 47 50 58 54 51 50
74 74 75 74 72 71 69 67 66 60 58 57 56 56 55 54 47 47 49 57 57 62 63 63 53 57 46 47 61 64 62 63 64 64 64 52 50 53 50 57 58 54 51
75 75 74 74 72 68 69 68 65 61 56 56 55 55 55 54 51 47 46 59 59 60 61 61 65 48 46 45 47 63 60 60 61 62 60 60 60 60 61 60 57 58 54
74 74 73 72 73 73 66 65 63 60 57 54 53 53 53 53 50 46 46 46 53 55 59 59 63 46 45 44 48 51 48 49 63 60 60 61 61 61 64 63 59 60 59
73 73 73 73 72 69 65 64 61 57 55 54 53 52 52 53 55 47 47 45 45 52 61 50 46 46 45 45 44 46 43 61 58 57 59 61 63 63 62 58 58 59 59
71 71 72 71 68 71 73 68 61 56 54 53 52 52 53 53 54 58 60 55 46 53 53 62 58 53 45 51 56 54 63 63 59 62 61 61 62 60 59 58 56 59 59
70 71 71 73 72 71 69 58 57 58 54 54 54 56 53 52 55 56 58 52 54 58 61 67 66 66 67 67 68 66 67 66 59 58 56 58 59 60 60 60 61 60 58
68 72 72 73 74 74 69 64 42 41 46 46 47 53 55 51 48 45 45 45 45 45 61 65 66 67 67 67 66 65 66 61 62 59 62 61 61 60 60 60 60 59 57
68 68 72 70 74 72 68 60 57 48 41 42 44 47 45 51 42 42 42 41 41 44 62 66 66 67 66 66 65 65 63 64 62 63 62 60 60 60 57 58 58 58 57
69 56 71 73 74 73 73 61 58 52 49 48 41 45 42 40 40 40 40 44 57 52 64 67 67 67 66 65 65 64 63 63 62 60 60 59 59 58 56 56 56 55 55
70 72 73 74 74 68 70 62 57 52 51 48 45 46 43 39 40 40 41 63 66 67 70 68 68 67 66 65 65 65 62 61 58 58 58 58 57 56 55 56 55 44 45
69 57 55 71 74 72 67 63 54 50 48 48 49 53 54 52 56 56 60 65 68 70 70 67 68 67 66 65 64 63 62 59 59 58 57 56 56 55 52 52 53 52 51
70 72 59 71 73 69 60 58 50 48 47 46 48 54 43 60 62 65 66 69 70 69 68 67 67 68 67 65 64 63 60 59 58 57 56 54 51 46 46 47 48 48 47
70 71 73 70 67 65 58 51 49 47 47 46 46 48 38 57 66 67 66 69 70 70 70 67 67 66 65 63 61 59 59 57 56 55 53 48 44 42 42 43 45 45 41
69 71 72 68 65 51 52 50 49 48 48 48 49 55 58 64 66 65 65 68 69 69 68 67 65 65 65 62 61 61 58 55 54 53 47 42 39 40 42 42 43 42 39
70 72 72 67 55 56 58 50 49 45 51 54 56 59 62 64 63 62 67 67 68 67 66 65 63 61 60 59 61 61 56 51 50 50 44 40 40 41 41 41 41 43 42
72 72 72 61 56 58 54 50 50 55 57 57 61 62 62 64 63 65 66 66 65 66 63 63 63 60 59 57 57 54 37 32 42 34 42 42 43 43 43 45 47 48 44
70 71 65 61 58 59 53 52 55 59 61 62 62 63 65 63 65 65 65 64 66 64 61 63 61 58 58 58 48 35 33 33 36 32 40 46 47 49 49 49 49 50 50
MSLP
1014.44 1014.71 1015.19 1015.84 1016.50 1017.01 1017.32 1017.54 1017.49 1017.47 1017.74 1018.04 1018.59 1018.96 1019.37 1019.52 1019.87 1020.28 1020.47 1020.45 1020.92 1020.85 1020.76 1020.64 1020.53 1020.43 1020.09 1019.53 1019.36 1019.16 1019.04 1019.05 1018.66 1018.60 1018.24 1018.06 1019.05 1019.27 1018.86 1018.54 1018.38 1017.95 1017.07
1014.37 1014.54 1014.94 1015.52 1015.93 1016.60 1016.98 1017.25 1017.30 1017.28 1017.64 1017.80 1018.11 1018.67 1019.00 1019.30 1019.75 1020.03 1020.35 1020.40 1020.52 1020.61 1020.60 1020.32 1020.13 1019.96 1020.01 1019.88 1019.53 1019.27 1019.22 1019.61 1019.32 1018.76 1018.56 1018.15 1017.96 1018.18 1018.31 1018.40 1017.77 1017.56 1017.78
1014.00 1014.39 1014.72 1015.20 1015.85 1016.17 1016.59 1016.82 1016.95 1017.02 1016.99 1017.29 1017.76 1018.21 1018.54 1018.91 1019.43 1019.72 1020.14 1020.39 1020.49 1020.31 1020.21 1020.04 1019.85 1019.80 1019.80 1019.68 1019.76 1019.65 1019.81 1018.75 1018.72 1018.75 1018.01 1017.52 1017.71 1017.86 1017.95 1017.72 1017.98 1017.79 1017.68
1012.97 1013.77 1014.16 1014.61 1015.21 1015.54 1016.00 1016.46 1016.68 1016.75 1016.75 1017.01 1017.53 1017.80 1018.14 1018.75 1019.49 1019.55 1019.96 1020.65 1020.63 1020.30 1020.10 1019.74 1019.63 1019.57 1019.58 1019.61 1019.64 1019.71 1019.01 1018.98 1018.34 1018.10 1017.83 1017.54 1017.34 1017.36 1017.35 1017.41 1017.52 1017.67 1017.51
1012.85 1013.25 1013.75 1013.98 1014.46 1015.16 1015.40 1015.81 1016.28 1016.54 1016.57 1016.68 1017.20 1017.64 1017.95 1018.41 1019.04 1019.81 1019.97 1020.75 1020.65 1020.14 1019.93 1019.43 1019.36 1019.52 1019.75 1020.07 1019.93 1019.24 1019.28 1018.87 1018.69 1018.18 1017.80 1017.40 1017.25 1017.44 1017.55 1017.91 1017.79 1017.34 1016.79
1013.23 1013.27 1013.26 1013.63 1014.05 1014.64 1015.11 1015.30 1015.75 1016.03 1016.36 1016.78 1017.04 1017.25 1017.53 1017.90 1018.35 1019.17 1019.52 1020.29 1020.43 1020.04 1019.55 1018.80 1018.89 1019.20 1019.54 1019.90 1019.84 1019.80 1019.83 1019.59 1019.47 1018.91 1018.26 1018.00 1017.98 1018.06 1017.76 1017.90 1017.88 1017.18 1016.80
1012.97 1013.24 1013.37 1013.68 1014.02 1014.23 1014.81 1015.35 1015.17 1015.63 1015.99 1016.21 1016.33 1016.64 1016.81 1017.56 1018.41 1018.48 1019.16 1019.90 1019.99 1019.95 1019.14 1018.48 1018.44 1018.14 1018.91 1019.56 1019.88 1020.09 1020.04 1020.18 1020.49 1019.81 1019.08 1018.71 1018.55 1018.53 1018.23 1017.93 1017.68 1017.49 1017.01
1012.85 1012.88 1013.03 1013.22 1013.48 1013.87 1014.22 1014.47 1014.71 1015.32 1015.43 1015.56 1015.87 1016.06 1016.65 1017.22 1017.88 1018.27 1019.07 1019.73 1020.07 1019.58 1019.08 1018.34 1018.21 1018.42 1019.00 1019.43 1019.71 1019.54 1019.02 1019.06 1019.45 1019.26 1019.06 1018.99 1018.73 1018.65 1018.53 1017.98 1017.57 1017.28 1017.03
1013.12 1012.94 1013.04 1013.08 1013.19 1013.45 1013.59 1013.77 1014.25 1014.78 1015.07 1015.17 1015.52 1015.97 1016.41 1017.19 1017.76 1018.48 1019.17 1019.28 1019.27 1018.84 1018.32 1017.83 1017.73 1018.27 1018.81 1019.25 1019.31 1018.61 1018.39 1018.37 1018.80 1019.08 1019.37 1019.37 1019.28 1019.36 1019.22 1018.37 1017.28 1017.24 1016.66
1013.33 1013.10 1012.95 1012.83 1012.85 1012.89 1012.99 1013.19 1013.61 1014.35 1014.55 1014.89 1015.30 1015.69 1016.15 1016.79 1017.58 1018.41 1018.98 1019.00 1018.81 1018.03 1017.57 1017.58 1017.86 1018.25 1018.52 1018.97 1019.17 1018.44 1018.19 1017.91 1017.91 1017.97 1018.29 1018.73 1018.77 1018.59 1018.85 1018.19 1017.15 1016.76 1016.83
1013.34 1013.17 1012.94 1012.82 1012.66 1012.96 1012.86 1012.93 1013.22 1013.86 1014.27 1014.39 1014.84 1015.32 1015.81 1016.51 1017.23 1017.76 1018.11 1018.37 1018.22 1017.78 1017.53 1017.33 1017.17 1017.78 1018.45 1018.77 1019.13 1018.59 1018.30 1018.32 1018.08 1017.82 1017.72 1017.45 1017.18 1017.14 1017.26 1017.24 1017.28 1016.84 1016.37
1013.14 1012.99 1012.86 1012.84 1012.59 1012.37 1012.68 1012.77 1013.01 1013.39 1013.76 1014.07 1014.48 1015.01 1015.40 1016.04 1016.66 1017.30 1017.78 1018.09 1018.09 1018.07 1017.57 1017.05 1016.70 1017.54 1018.19 1018.59 1018.95 1018.67 1018.57 1018.56 1017.75 1017.33 1017.03 1016.49 1016.27 1016.16 1016.20 1016.60 1016.78 1016.39 1016.29
1013.07 1012.86 1012.68 1012.50 1012.33 1012.61 1012.53 1012.45 1012.76 1013.16 1013.49 1013.79 1014.11 1014.58 1015.03 1015.68 1016.40 1016.88 1017.19 1017.38 1017.68 1017.99 1017.46 1017.11 1017.19 1017.64 1017.97 1018.29 1018.18 1018.20 1018.34 1017.81 1017.20 1016.96 1016.34 1015.88 1015.79 1015.84 1016.10 1016.24 1016.11 1015.89 1015.67
1012.98 1012.77 1012.51 1012.25 1012.13 1011.86 1011.71 1011.96 1012.66 1012.91 1013.16 1013.50 1013.80 1014.22 1014.72 1015.36 1016.05 1016.25 1016.66 1017.19 1017.42 1017.54 1017.16 1017.07 1017.16 1017.21 1017.44 1017.28 1017.13 1017.37 1017.07 1016.50 1016.38 1015.93 1015.82 1015.74 1015.69 1015.66 1015.60 1015.73 1015.62 1015.02 1014.43
1012.78 1012.49 1012.07 1011.70 1011.53 1011.61 1011.86 1012.96 1012.95 1012.74 1012.96 1013.20 1013.47 1013.89 1014.47 1015.12 1015.30 1015.43 1015.87 1016.85 1017.04 1016.58 1016.48 1016.11 1016.11 1015.88 1015.63 1015.21 1015.01 1015.22 1015.35 1015.33 1015.67 1015.93 1015.94 1015.57 1015.36 1014.90 1014.77 1014.82 1014.46 1014.35 1014.01
1012.52 1011.98 1011.57 1011.41 1011.08 1011.09 1011.55 1012.36 1013.34 1013.04 1012.96 1013.26 1013.47 1013.84 1014.38 1014.67 1015.07 1015.44 1016.07 1016.63 1016.44 1016.54 1016.39 1015.39 1014.98 1014.80 1014.74 1014.68 1014.71 1014.78 1014.91 1015.13 1015.04 1015.33 1015.02 1014.93 1014.70 1014.56 1014.34 1014.43 1014.46 1014.07 1013.74
1011.91 1011.75 1011.28 1010.87 1010.46 1010.59 1011.17 1012.17 1012.59 1013.32 1013.33 1013.49 1013.86 1014.31 1014.84 1014.78 1015.05 1015.53 1016.11 1016.46 1016.54 1016.67 1016.02 1014.78 1014.55 1014.50 1014.62 1014.74 1014.71 1014.81 1014.89 1015.05 1015.58 1015.06 1014.91 1014.89 1014.71 1014.58 1014.64 1014.33 1014.16 1013.91 1013.56
1011.29 1011.16 1010.80 1010.23 1010.10 1010.09 1010.16 1011.62 1012.30 1013.06 1013.51 1013.93 1014.32 1014.60 1014.89 1015.16 1015.24 1015.75 1016.06 1016.43 1016.58 1016.38 1015.43 1014.43 1014.28 1014.43 1014.69 1014.73 1014.88 1014.89 1015.02 1015.15 1015.01 1015.11 1015.14 1015.02 1014.88 1014.67 1014.51 1014.31 1014.12 1013.92 1013.74
1010.78 1010.20 1009.85 1009.61 1009.48 1009.82 1010.59 1011.30 1012.02 1012.70 1013.17 1013.70 1014.48 1014.94 1015.16 1015.45 1015.83 1015.93 1016.07 1015.57 1014.60 1014.35 1014.21 1014.30 1014.31 1014.56 1014.70 1014.94 1014.94 1014.90 1015.17 1015.16 1015.62 1015.44 1015.15 1015.00 1014.89 1014.78 1014.61 1014.44 1014.23 1014.36 1014.44
1010.18 1009.89 1009.79 1009.56 1009.01 1009.17 1010.38 1010.97 1011.85 1012.49 1012.93 1013.34 1014.01 1014.32 1014.72 1015.44 1015.64 1015.84 1015.63 1014.74 1014.19 1014.17 1014.18 1014.40 1014.55 1014.82 1014.96 1014.93 1014.99 1015.07 1014.97 1015.19 1015.06 1015.10 1015.09 1015.16 1015.12 1015.09 1015.04 1014.87 1014.58 1014.27 1014.20
1009.60 1008.99 1008.89 1009.12 1008.67 1009.67 1010.69 1011.11 1012.03 1012.65 1013.12 1013.86 1014.03 1014.37 1014.59 1014.55 1014.41 1014.25 1014.07 1014.04 1014.19 1014.24 1014.53 1014.76 1014.60 1014.70 1014.78 1014.91 1015.05 1015.05 1015.25 1015.17 1015.21 1015.39 1015.39 1015.51 1015.84 1016.20 1016.16 1015.78 1015.34 1015.02 1015.00
1009.03 1008.38 1008.00 1008.63 1009.11 1009.96 1010.71 1011.48 1012.12 1012.62 1013.07 1013.89 1014.58 1015.11 1014.98 1014.57 1013.66 1013.81 1014.00 1014.31 1014.49 1014.84 1014.92 1015.08 1014.83 1015.02 1015.16 1015.41 1015.56 1015.59 1015.35 1015.39 1015.57 1015.75 1015.90 1016.54 1016.91 1016.98 1016.76 1016.28 1015.69 1015.39 1015.65
1008.35 1007.77 1007.73 1008.43 1009.37 1010.51 1011.13 1011.67 1012.26 1012.86 1013.42 1013.97 1014.68 1014.78 1014.40 1013.76 1013.60 1013.82 1014.23 1014.62 1014.93 1015.08 1015.18 1015.30 1015.45 1015.27 1015.43 1015.87 1015.78 1015.62 1015.57 1015.86 1016.19 1016.41 1016.78 1017.24 1017.36 1017.07 1016.70 1016.28 1015.87 1015.68 1015.74
1007.56 1007.09 1007.12 1008.01 1009.88 1010.65 1011.04 1011.88 1012.54 1013.08 1013.67 1014.16 1014.31 1014.18 1013.75 1013.70 1013.93 1014.46 1014.51 1014.87 1015.15 1015.33 1015.56 1015.83 1015.97 1016.07 1016.18 1016.16 1015.86 1015.71 1016.34 1017.19 1017.23 1016.87 1017.52 1017.55 1017.24 1016.82 1016.60 1016.35 1016.01 1015.68 1015.49
1006.73 1006.42 1006.86 1008.57 1009.92 1010.41 1011.47 1012.16 1012.77 1013.25 1013.52 1013.71 1013.57 1013.64 1013.74 1013.87 1014.23 1014.52 1014.82 1015.10 1015.40 1015.63 1016.04 1016.16 1016.13 1016.29 1016.21 1016.33 1016.35 1016.89 1018.07 1018.21 1017.85 1018.13 1017.68 1017.37 1016.84 1016.55 1016.32 1015.80 1015.39 1015.03 1015.04
1006.63 1006.72 1007.61 1008.88 1009.67 1010.20 1011.45 1012.22 1012.73 1012.81 1012.82 1013.09 1013.35 1013.44 1013.65 1014.04 1014.32 1014.71 1015.03 1015.44 1015.67 1015.94 1016.19 1016.04 1016.23 1016.39 1016.32 1016.21 1017.58 1018.14 1018.22 1018.14 1018.00 1018.08 1017.68 1016.68 1016.24 1015.75 1015.40 1015.07 1014.80 1014.44 1014.26
Wind_Speed
8 7 8 8 9 9 9 9 9 12 13 13 13 12 11 10 10 9 8 6 9 9 8 6 7 6 7 5 5 6 6 8 9 11 11 10 10 11 10 11 12 12 11
6 6 7 8 9 10 11 11 10 11 11 12 12 12 11 10 8 9 9 9 10 10 10 9 9 7 6 7 8 7 9 9 9 13 12 8 9 7 9 10 9 9 6
4 5 6 7 9 11 11 9 10 12 13 13 13 12 12 9 9 8 8 10 9 11 11 10 9 8 7 8 9 8 9 7 9 8 10 8 9 8 8 8 6 6 5
4 5 6 7 9 9 9 10 8 8 8 11 10 11 12 6 11 8 3 3 10 10 12 11 9 9 9 9 8 10 7 7 9 8 9 9 7 6 7 6 8 7 6
5 5 6 6 7 8 10 10 9 7 6 5 6 6 7 9 6 7 5 2 11 10 13 10 10 9 5 7 7 9 6 7 9 8 8 9 9 10 10 8 8 7 7
5 6 4 5 6 8 9 9 10 9 11 9 10 11 10 7 15 11 7 4 9 11 14 10 10 7 7 8 7 2 4 6 8 7 9 10 9 10 8 7 8 7 8
3 4 4 3 5 6 7 5 11 9 7 10 12 12 14 10 11 12 8 5 8 12 13 11 9 5 4 9 6 3 4 4 7 7 9 9 12 11 11 10 9 7 9
7 6 3 3 6 6 8 10 8 6 10 9 10 11 10 10 13 10 7 6 8 13 13 12 11 9 6 3 3 12 9 9 10 7 8 10 11 11 12 11 11 9 9
9 8 6 5 5 6 8 8 8 8 7 10 8 11 10 10 11 9 6 7 10 14 15 13 12 4 7 8 9 12 8 8 10 10 10 8 9 9 10 9 6 7 8
8 9 8 7 7 8 7 7 6 8 8 7 8 9 9 9 13 10 7 6 9 10 10 9 6 8 10 10 11 10 9 9 5 7 8 9 12 8 12 8 7 6 6
7 8 8 9 6 6 9 7 7 8 8 10 10 8 9 8 9 13 10 8 8 8 8 8 8 12 10 9 10 11 6 7 7 10 5 5 5 5 4 4 7 6 7
7 8 8 8 8 7 6 6 7 8 9 7 7 7 8 9 10 10 10 11 7 7 11 8 4 11 9 8 9 11 3 5 10 7 8 6 5 5 3 4 8 9 7
8 9 8 8 7 6 8 7 5 5 5 5 6 7 7 7 7 9 8 6 6 8 9 6 10 7 6 9 15 10 6 8 8 8 8 7 6 7 6 6 6 8 10
9 10 9 9 7 8 8 5 4 4 4 5 6 7 7 7 6 7 8 5 7 8 6 5 2 3 6 5 5 10 9 9 4 8 9 8 6 5 6 5 7 9 9
8 9 9 8 9 8 6 4 4 4 6 6 7 7 8 7 8 9 7 4 7 6 5 6 7 9 9 8 6 5 7 7 5 7 6 6 8 7 6 6 7 9 10
9 9 9 9 9 9 6 3 6 6 7 7 10 8 6 2 9 11 10 7 7 6 6 7 6 6 6 5 6 6 6 5 3 3 7 8 8 7 8 8 9 8 9
10 10 10 11 10 8 4 6 6 4 10 6 8 7 3 8 9 11 10 8 7 4 7 7 5 5 5 5 6 5 5 5 5 7 7 7 8 8 8 8 8 8 9
11 11 11 10 10 8 6 2 4 4 5 4 8 4 3 7 12 12 12 7 5 6 10 5 5 4 5 5 5 5 5 5 5 6 8 8 8 8 8 9 8 9 8
12 11 10 9 9 5 4 3 4 5 5 5 4 4 7 10 8 9 8 7 6 4 3 4 3 4 4 4 4 5 5 5 6 7 7 8 8 8 9 9 9 6 4
12 15 10 10 9 5 4 3 3 4 6 7 6 7 9 7 7 7 8 9 4 3 2 4 3 4 4 4 5 5 5 6 7 7 8 8 8 8 9 9 8 8 5
9 12 4 7 9 1 3 2 4 5 6 5 5 5 7 9 9 7 4 3 1 2 3 3 4 3 4 4 5 6 7 7 7 7 8 8 9 8 9 9 9 7 5
11 11 9 5 5 5 3 5 6 8 9 8 6 2 5 7 4 4 3 2 2 2 2 3 4 4 5 5 6 6 7 8 8 8 8 8 7 7 7 7 6 5 4
12 11 9 6 2 8 7 7 7 7 8 7 6 7 7 5 5 4 3 3 2 2 3 3 4 5 6 6 6 6 7 7 8 9 7 6 6 5 5 5 5 5 3
13 10 12 9 6 6 9 8 7 8 8 7 8 8 6 5 5 4 3 3 2 2 3 3 4 5 6 6 6 7 10 8 8 6 7 5 5 4 4 5 5 5 5
10 7 7 9 9 9 10 7 7 8 8 8 7 6 6 5 5 4 3 3 3 2 2 3 4 5 7 9 9 11 9 5 8 6 5 5 6 6 4 5 4 3 4
7 8 8 9 9 11 9 8 8 7 7 7 6 6 6 5 4 4 4 3 1 2 3 3 4 7 8 7 11 7 4 5 6 5 6 5 4 4 4 5 6 4 3
Wind_Direction
212 215 210 200 200 188 190 196 216 200 192 187 191 196 195 189 200 208 235 238 221 237 246 233 243 265 274 286 292 292 297 288 316 305 308 341 321 301 300 323 307 301 288
225 233 207 208 196 191 200 208 213 215 204 202 195 200 200 202 201 214 226 243 230 235 238 244 255 255 249 259 267 287 328 303 291 306 310 293 272 338 314 311 297 325 347
207 224 238 205 194 203 205 208 208 210 208 208 202 202 202 202 205 215 218 244 258 252 249 254 262 260 265 286 300 315 287 313 326 286 305 311 339 304 319 304 327 297 289
209 213 234 228 219 215 205 202 208 221 223 214 208 206 212 168 214 204 149 322 274 266 261 256 262 266 273 285 299 283 281 308 310 296 316 306 310 323 311 313 309 335 322
282 241 242 233 218 224 210 206 204 204 206 185 195 223 191 197 192 171 121 254 280 263 265 251 247 257 22 311 295 325 319 311 324 305 310 316 342 333 330 328 311 304 307
317 304 264 251 235 222 228 214 204 199 201 194 198 205 200 187 147 143 131 233 279 280 257 253 257 191 216 222 229 333 353 301 291 310 312 336 317 323 309 312 297 330 311
35 291 297 265 243 240 234 204 231 211 197 202 209 207 203 179 157 137 145 227 265 275 282 255 263 273 163 226 198 229 225 255 282 309 301 319 318 318 311 310 311 306 297
14 5 330 245 244 238 224 229 220 181 198 212 208 202 182 177 161 145 146 249 265 270 278 264 257 262 200 350 212 235 241 216 204 253 321 317 314 324 313 305 296 308 295
7 6 355 316 276 256 249 251 232 219 203 206 206 199 179 175 148 143 169 241 262 266 265 246 253 270 188 202 235 254 273 270 169 200 235 250 260 261 269 293 312 317 319
1 356 346 331 307 299 280 254 243 220 212 202 198 193 169 151 155 159 199 237 256 257 260 263 170 229 163 181 229 264 264 279 306 316 292 229 242 242 232 269 312 319 321
353 348 345 337 326 299 298 287 244 229 211 206 201 181 163 150 165 187 197 234 248 271 276 265 247 173 177 187 229 265 280 327 283 258 287 274 209 219 251 299 298 296 304
338 337 342 334 330 331 297 283 255 234 226 205 187 176 159 170 169 190 207 226 254 286 280 269 118 150 180 201 219 246 221 260 262 266 272 287 306 308 321 313 308 302 287
323 322 329 330 330 325 312 303 261 221 212 198 183 175 164 162 168 188 222 227 251 251 272 86 109 148 172 215 229 244 211 240 259 267 285 299 314 326 322 284 274 284 293
316 318 321 321 335 314 318 327 277 212 202 188 177 171 160 153 177 187 213 201 221 231 204 221 203 277 273 303 202 198 225 254 299 301 307 309 307 309 302 304 300 288 281
305 308 303 300 319 310 348 330 310 238 195 186 181 165 151 171 196 202 204 148 206 213 192 228 212 219 239 235 242 241 253 259 205 231 262 286 292 296 300 273 293 314 299
284 291 314 307 309 311 315 316 76 349 209 188 150 159 178 206 174 152 152 181 108 137 212 249 252 258 273 296 304 307 302 281 279 275 287 295 307 310 312 325 300 300 303
276 286 286 292 294 298 299 298 300 44 50 100 135 135 6 181 133 139 143 131 127 155 242 263 268 288 302 307 303 312 307 329 323 277 317 307 307 313 307 308 305 305 305
273 265 269 281 286 287 300 258 260 199 175 142 60 79 119 135 133 138 139 151 177 212 258 278 292 309 300 310 313 316 315 311 311 327 315 312 309 308 307 304 304 307 313
273 279 290 284 267 299 316 259 243 194 171 134 114 98 107 92 112 125 159 238 251 275 280 285 311 304 307 303 297 307 322 319 329 299 306 312 318 314 308 305 306 290 275
270 253 256 280 279 248 266 266 204 157 153 143 150 147 138 136 159 172 208 230 251 306 333 307 321 313 300 320 326 314 313 324 320 320 328 325 322 321 315 312 307 305 324
278 276 245 262 262 270 239 190 157 138 123 95 65 136 154 182 188 192 184 166 305 337 356 319 298 320 320 330 315 334 329 326 333 332 329 331 351 336 327 321 313 318 331
269 271 267 252 240 181 161 143 138 127 116 109 99 202 262 255 167 159 120 97 36 19 4 313 326 4 351 347 340 327 332 339 342 342 341 355 339 325 314 304 301 330 1
259 258 240 200 229 107 133 119 114 110 109 109 153 193 208 197 152 123 111 77 30 7 30 1 334 354 13 347 330 337 342 351 354 343 349 340 320 312 314 312 319 323 302
255 233 247 116 137 154 144 128 117 109 134 155 190 196 181 160 126 99 105 96 88 61 31 13 18 9 343 343 343 351 32 9 331 351 347 320 308 309 315 306 299 301 305
247 199 221 124 152 163 132 123 126 148 156 185 179 167 148 139 128 118 98 90 67 33 58 4 19 355 6 352 14 15 39 17 352 351 317 292 292 317 294 283 267 262 301
202 236 123 154 160 153 136 135 153 173 157 160 155 147 136 134 114 112 100 91 79 78 3 12 17 357 356 20 39 26 12 15 359 331 305 278 293 291 286 275 291 297 229